Regional Weather Roundup
Issued by NWS State College, PA

Home | Current Version | Previous Version | Graphics & Text | Print | Product List | Glossary On
Versions: 1 2 3 4 5 6 7 8 9 10 11 12 13 14 15 16 17 18 19 20 21 22 23 24 25 26 27 28 29 30 31 32 33 34 35 36 37 38 39 40 41 42 43 44 45 46 47 48 49 50
000
ASUS41 KCTP 180503
RWRCTP

REGIONAL WEATHER ROUNDUP
NATIONAL WEATHER SERVICE STATE COLLEGE PA
1200 AM EST WED JAN 18 2017

Note: "fair" indicates few or no clouds below 12,000 feet with no
significant weather and/or obstructions to visibility.

* = STATION THAT DOES NOT REPORT PRECIPITATION /E.G. RAIN...SNOW...ETC/
    THUNDER OR FOG.

PAZ002>004-007>009-013>016-020>023-029>032-180600-
WESTERN PENNSYLVANIA

CITY           SKY/WX    TMP DP  RH WIND       PRES   REMARKS
ERIE           LGT RAIN  41  38  89 W17G26    29.88R FOG
MEADVILLE      CLOUDY    43  40  89 W10       29.87R
FRANKLIN*        N/A     45  43  93 W10       29.88R
NEW CASTLE     CLOUDY    47  43  86 W10       29.90S
BEAVER COUNTY  NOT AVBL
BUTLER*        CLOUDY    48  43  81 W9        29.91S
PITTSBURGH INT CLOUDY    50  44  80 W15       29.89R
PITTSBURGH     CLOUDY    52  42  69 W13       29.88R
INDIANA*       CLOUDY    52  48  87 NW10      29.88F
LATROBE        PTCLDY    52  45  76 SW13      29.89S
WASHINGTON CO* NOT AVBL
$$

PAZ004>006-010>012-017>019-024>028-033>037-041-042-045-046-049>053-180600-
CENTRAL PENNSYLVANIA

CITY           SKY/WX    TMP DP  RH WIND       PRES   REMARKS
BRADFORD       LGT RAIN  44  44 100 W6        29.81F
DUBOIS         CLOUDY    48  43  82 W9        29.83S
CLEARFIELD     FOG       37  37 100 NE5       29.84F VSB 1/4
JOHNSTOWN      CLOUDY    50  44  80 W17G26    29.84F
ALTOONA        FOG       37  36  96 CALM      29.86F VSB 1/4
STATE COLLEGE  FOG       34  34  99 CALM      29.87F VSB 1/4
WILLIAMSPORT   CLOUDY    39  37  92 E3        29.89F
SELINSGROVE    FOG       36  36 100 CALM      29.91F VSB 1/2
FT INDIANTOWN  FOG       37  37 100 CALM      29.90F VSB 1/2
CAPITAL CITY   CLOUDY    39  37  92 SE3       29.91F FOG
HARRISBURG     CLOUDY    39  39 100 CALM      29.90F FOG
YORK           CLOUDY    41  41 100 CALM      29.89F FOG
$$

PAZ038>040-043-044-047-048-054-055-060>062-067>071-180600-
EASTERN PENNSYLVANIA

CITY           SKY/WX    TMP DP  RH WIND       PRES   REMARKS
SCRANTON       CLOUDY    37  36  96 VRB5      29.89F
MOUNT POCONO   FRZ RAIN  32  30  92 E5        29.87F VSB 1/4
ALLENTOWN      CLOUDY    38  35  89 NE9       29.93F FOG
QUAKERTOWN*    CLOUDY    37  37 100 CALM      29.92F VSB 1/2
READING        LGT RAIN  37  36  96 N6        29.92F VSB 1
LANCASTER      CLOUDY    41  41 100 NE8       29.90F FOG
COATESVILLE    LGT RAIN  41  41 100 N5        29.91F
POTTSTOWN      LGT RAIN  38  38 100 N5        29.93S FOG
BLUE BELL      CLOUDY    39  39 100 NE3       29.90F VSB 1
DOYLESTOWN     CLOUDY    40  40 100 NE3       29.91F FOG
WILLOW GROVE   NOT AVBL
NORTH PHILA    FOG       43  42  97 NE6       29.93F VSB 1
PHILADELPHIA   LGT RAIN  43  42  97 NE6       29.92F VSB 1/4
$$



USA.gov is the U.S. government's official web portal to all federal, state and local government web resources and services.